N209SD CYXU-CYKF

Flight info

Callsign N209SD
Flight time 0h 26m
Altitude 5000
Route DUPUR
Aircraft C172/L-SFG/C

Departure

Time 2026-05-09 01:56
Airport London International Airport (CYXU)

Arrival

Time 2026-05-09 02:22
Airport Region of Waterloo International Airport (CYKF)
Time Latitude Longitude Altitude Speed Heading
2026-05-09 01:41 43.02880 -81.14797 898 ft 0 kts 299°
2026-05-09 01:50 43.02871 -81.14801 898 ft 5 kts 94°
2026-05-09 01:50 43.02903 -81.14732 897 ft 12 kts 318°
2026-05-09 01:50 43.02992 -81.14839 895 ft 24 kts 319°
2026-05-09 01:51 43.03116 -81.14987 897 ft 22 kts 319°
2026-05-09 01:51 43.03238 -81.15135 900 ft 25 kts 320°
2026-05-09 01:51 43.03367 -81.15287 901 ft 32 kts 319°
2026-05-09 01:51 43.03535 -81.15488 900 ft 30 kts 318°
2026-05-09 01:52 43.03675 -81.15660 899 ft 24 kts 317°
2026-05-09 01:52 43.03792 -81.15804 899 ft 21 kts 321°
2026-05-09 01:52 43.03897 -81.15925 901 ft 20 kts 321°
2026-05-09 01:52 43.03965 -81.16004 903 ft 0 kts 319°
2026-05-09 01:54 43.03971 -81.16009 903 ft 8 kts 329°
2026-05-09 01:54 43.04080 -81.16006 908 ft 21 kts 19°
2026-05-09 01:54 43.04104 -81.15856 906 ft 26 kts 136°
2026-05-09 01:55 43.03857 -81.15560 900 ft 71 kts 140°
2026-05-09 01:55 43.03416 -81.15030 993 ft 89 kts 132°
2026-05-09 01:55 43.03202 -81.14309 1259 ft 84 kts 93°
2026-05-09 01:55 43.03299 -81.13531 1468 ft 84 kts 59°
2026-05-09 01:56 43.03612 -81.12813 1610 ft 95 kts 57°
2026-05-09 01:56 43.04003 -81.12013 1703 ft 105 kts 54°
2026-05-09 01:56 43.04453 -81.11156 1719 ft 119 kts 55°
2026-05-09 01:56 43.04950 -81.10290 1901 ft 111 kts 36°
2026-05-09 01:57 43.05639 -81.09952 2136 ft 103 kts
2026-05-09 01:57 43.06314 -81.09732 2376 ft 98 kts 24°
2026-05-09 01:57 43.06788 -81.09109 2616 ft 93 kts 49°
2026-05-09 01:57 43.07201 -81.08456 2852 ft 88 kts 52°
2026-05-09 01:58 43.07577 -81.07820 3093 ft 84 kts 52°
2026-05-09 01:58 43.07925 -81.07216 3319 ft 78 kts 52°
2026-05-09 01:58 43.08243 -81.06661 3537 ft 70 kts 51°
2026-05-09 01:58 43.08526 -81.06141 3507 ft 71 kts 49°
2026-05-09 01:59 43.08851 -81.05568 3609 ft 79 kts 52°
2026-05-09 01:59 43.09233 -81.04901 3643 ft 97 kts 54°
2026-05-09 01:59 43.09637 -81.04149 3802 ft 99 kts 52°
2026-05-09 01:59 43.10056 -81.03391 3955 ft 100 kts 52°
2026-05-09 02:00 43.10479 -81.02624 4107 ft 101 kts 53°
2026-05-09 02:00 43.10905 -81.01853 4258 ft 102 kts 53°
2026-05-09 02:00 43.11333 -81.01078 4409 ft 102 kts 53°
2026-05-09 02:00 43.11762 -81.00303 4558 ft 102 kts 53°
2026-05-09 02:01 43.12191 -80.99528 4707 ft 102 kts 53°
2026-05-09 02:01 43.12619 -80.98754 4856 ft 102 kts 53°
2026-05-09 02:01 43.13044 -80.97984 5004 ft 101 kts 53°
2026-05-09 02:01 43.13466 -80.97218 5153 ft 101 kts 52°
2026-05-09 02:02 43.13886 -80.96457 5301 ft 100 kts 52°
2026-05-09 02:02 43.14304 -80.95699 5448 ft 99 kts 53°
2026-05-09 02:02 43.14734 -80.94920 5504 ft 108 kts 53°
2026-05-09 02:02 43.15204 -80.94066 5510 ft 116 kts 53°
2026-05-09 02:03 43.15702 -80.93161 5507 ft 121 kts 53°
2026-05-09 02:03 43.16214 -80.92230 5509 ft 123 kts 53°
2026-05-09 02:03 43.16733 -80.91287 5508 ft 124 kts 53°
2026-05-09 02:03 43.17256 -80.90337 5510 ft 125 kts 53°
2026-05-09 02:04 43.17780 -80.89385 5508 ft 125 kts 53°
2026-05-09 02:04 43.18306 -80.88431 5508 ft 126 kts 53°
2026-05-09 02:04 43.18832 -80.87476 5508 ft 126 kts 53°
2026-05-09 02:04 43.19350 -80.86533 5507 ft 126 kts 53°
2026-05-09 02:05 43.19883 -80.85565 5507 ft 125 kts 53°
2026-05-09 02:05 43.20400 -80.84623 5507 ft 125 kts 53°
2026-05-09 02:05 43.20925 -80.83668 5507 ft 126 kts 53°
2026-05-09 02:05 43.21451 -80.82711 5507 ft 126 kts 53°
2026-05-09 02:06 43.21977 -80.81755 5506 ft 126 kts 53°
2026-05-09 02:06 43.22502 -80.80799 5506 ft 126 kts 53°
2026-05-09 02:06 43.23034 -80.79830 5506 ft 126 kts 53°
2026-05-09 02:07 43.24076 -80.77930 5506 ft 126 kts 53°
2026-05-09 02:07 43.24601 -80.76973 5505 ft 126 kts 53°
2026-05-09 02:07 43.25126 -80.76016 5505 ft 125 kts 53°
2026-05-09 02:07 43.25650 -80.75059 5504 ft 125 kts 53°
2026-05-09 02:08 43.26175 -80.74102 5505 ft 125 kts 53°
2026-05-09 02:08 43.26698 -80.73145 5504 ft 126 kts 53°
2026-05-09 02:08 43.27223 -80.72186 5504 ft 126 kts 53°
2026-05-09 02:08 43.27747 -80.71229 5504 ft 126 kts 53°
2026-05-09 02:09 43.28272 -80.70270 5504 ft 126 kts 53°
2026-05-09 02:09 43.28796 -80.69312 5503 ft 125 kts 53°
2026-05-09 02:09 43.29320 -80.68354 5503 ft 125 kts 53°
2026-05-09 02:09 43.29843 -80.67397 5503 ft 125 kts 53°
2026-05-09 02:10 43.30368 -80.66437 5503 ft 126 kts 53°
2026-05-09 02:10 43.30891 -80.65478 5503 ft 126 kts 53°
2026-05-09 02:10 43.31415 -80.64518 5502 ft 126 kts 53°
2026-05-09 02:10 43.31939 -80.63558 5502 ft 126 kts 54°
2026-05-09 02:11 43.32393 -80.62545 5522 ft 125 kts 60°
2026-05-09 02:11 43.32841 -80.61491 5437 ft 131 kts 60°
2026-05-09 02:11 43.33242 -80.60545 5355 ft 132 kts 60°
2026-05-09 02:11 43.33677 -80.59521 5249 ft 127 kts 60°
2026-05-09 02:12 43.34131 -80.58450 5153 ft 132 kts 60°
2026-05-09 02:12 43.34591 -80.57366 5055 ft 134 kts 60°
2026-05-09 02:12 43.35154 -80.56345 4953 ft 135 kts 46°
2026-05-09 02:12 43.35857 -80.55500 4852 ft 135 kts 37°
2026-05-09 02:13 43.36605 -80.54725 4752 ft 135 kts 37°
2026-05-09 02:13 43.37353 -80.53950 4652 ft 135 kts 37°
2026-05-09 02:13 43.38102 -80.53176 4552 ft 135 kts 37°
2026-05-09 02:13 43.38851 -80.52401 4451 ft 135 kts 37°
2026-05-09 02:14 43.39596 -80.51630 4347 ft 131 kts 37°
2026-05-09 02:14 43.40298 -80.50901 4234 ft 123 kts 37°
2026-05-09 02:14 43.41006 -80.50288 4128 ft 119 kts 26°
2026-05-09 02:14 43.41736 -80.49773 4018 ft 117 kts 27°
2026-05-09 02:15 43.42455 -80.49265 3894 ft 115 kts 27°
2026-05-09 02:15 43.43153 -80.48770 3709 ft 111 kts 27°
2026-05-09 02:15 43.43836 -80.48287 3537 ft 109 kts 27°
2026-05-09 02:15 43.44377 -80.47675 3522 ft 96 kts 52°
2026-05-09 02:16 43.44793 -80.47024 3515 ft 85 kts 49°
2026-05-09 02:16 43.45168 -80.46415 3522 ft 82 kts 50°
2026-05-09 02:16 43.45544 -80.45796 3443 ft 87 kts 50°
2026-05-09 02:16 43.45839 -80.45066 3350 ft 89 kts 65°
2026-05-09 02:17 43.46108 -80.44297 3269 ft 89 kts 65°
2026-05-09 02:17 43.46374 -80.43524 3174 ft 90 kts 65°
2026-05-09 02:17 43.46638 -80.42756 3068 ft 88 kts 65°
2026-05-09 02:17 43.46898 -80.42001 2967 ft 87 kts 65°
2026-05-09 02:18 43.47155 -80.41249 2865 ft 87 kts 65°
2026-05-09 02:18 43.47412 -80.40502 2761 ft 86 kts 65°
2026-05-09 02:18 43.47666 -80.39761 2661 ft 85 kts 65°
2026-05-09 02:18 43.47920 -80.39024 2555 ft 84 kts 64°
2026-05-09 02:19 43.48172 -80.38295 2429 ft 86 kts 65°
2026-05-09 02:19 43.48430 -80.37547 2249 ft 85 kts 65°
2026-05-09 02:19 43.48679 -80.36825 2091 ft 82 kts 64°
2026-05-09 02:19 43.48922 -80.36120 1938 ft 80 kts 65°
2026-05-09 02:20 43.49039 -80.35451 1817 ft 73 kts 107°
2026-05-09 02:20 43.48721 -80.34914 1632 ft 74 kts 148°
2026-05-09 02:20 43.48430 -80.34686 1518 ft 73 kts 155°
2026-05-09 02:20 43.47801 -80.34425 1361 ft 70 kts 190°
2026-05-09 02:21 43.47373 -80.34725 1317 ft 73 kts 229°
2026-05-09 02:21 43.47070 -80.35294 1242 ft 74 kts 242°
2026-05-09 02:21 43.46844 -80.35924 1159 ft 74 kts 245°
2026-05-09 02:21 43.46625 -80.36556 1057 ft 73 kts 243°
2026-05-09 02:22 43.46418 -80.37134 1030 ft 58 kts 245°
2026-05-09 02:22 43.46325 -80.37407 1030 ft 38 kts 244°
2026-05-09 02:22 43.46230 -80.37675 1031 ft 24 kts 236°
2026-05-09 02:22 43.46203 -80.37702 1030 ft 14 kts 79°